Location: La Bastide
(43.0559°N, 0.9878°E)
Time: 07:51:05
(UTC+00:00)

Daily predictions for brighter satellites

Satellite Brightness Start Highest point End
(mag) Time Altitude Azimuth Time Altitude Azimuth Time Altitude Azimuth
ADEOS 4.1 16:43:10 10° S 16:48:21 68° WSW 16:53:35 10° NNW
COSMO-SKYMED 1 4.4 16:49:03 10° ENE 16:51:00 13° E 16:52:55 10° ESE
USA 276 2.6 16:51:20 10° NW 16:54:19 41° NNE 16:57:18 10° E
CZ-2C R/B 2.9 16:50:09 10° SSE 16:55:08 83° ENE 16:59:58 10° N
ISS -2.0 16:56:58 10° NW 16:59:33 20° N 17:02:09 10° ENE
FengYun 1-2 T 4.2 16:55:34 10° SSE 17:01:08 69° ENE 17:06:40 10° N
Cosmos 540 Rocket 4.2 17:00:43 10° SSE 17:05:14 33° E 17:09:46 10° NE
Okean O Rocket 3.0 17:04:57 10° ESE 17:07:54 18° ENE 17:10:53 10° NNE
Cosmos 1408 Rocket 3.7 17:04:55 10° N 17:09:17 79° W 17:13:39 10° S
Cosmos 1939 Rocket 2.9 17:05:47 10° SSE 17:09:52 70° ENE 17:13:58 10° N
Cosmos 468 Rocket 4.0 17:05:16 10° S 17:10:20 63° ESE 17:15:28 10° NNE
Cosmos 1898 Rocket 3.7 17:06:50 10° N 17:11:55 48° ENE 17:16:56 10° SE
Cosmos 1656 3.7 17:07:00 10° NNW 17:12:34 87° ENE 17:18:11 10° SSE
Cosmos 1743 Rocket 3.5 17:11:53 10° N 17:16:11 64° E 17:20:28 10° SSE
Cosmos 1697 Rocket 2.8 17:14:06 10° NNW 17:19:34 51° ENE 17:25:01 10° SE
Cosmos 2369 4.3 17:14:40 10° N 17:19:56 36° NE 17:25:09 10° ESE
Meteor 1-25 Rocket 4.2 17:15:07 10° N 17:20:39 62° ENE 17:26:11 10° SSE
Cosmos 1151 Rocket 4.3 17:19:10 10° SE 17:22:22 21° E 17:24:43 14° NE
GPS 2-04 Rocket1 4.4 17:19:00 10° SW 17:22:30 27° S 17:26:00 10° ESE
Cosmos 1980 Rocket 2.9 17:17:50 10° N 17:22:48 30° NE 17:27:42 10° ESE
H-2A R/B 2.2 17:20:08 10° SE 17:25:06 47° ENE 17:29:58 10° N
Cosmos 1812 3.8 17:25:32 10° SE 17:28:37 23° E 17:30:15 18° NE
SMAP 3.2 17:24:14 10° S 17:28:53 81° WSW 17:33:34 10° NNW
ATLAS CENTAUR R/B 4.1 17:29:11 10° NW 17:30:15 11° NNW 17:31:20 10° NNW
SL-16 R/B 4.0 17:28:31 10° NNE 17:30:45 12° NE 17:30:49 12° NE
Cosmos 2082 Rocket 2.7 17:28:36 10° S 17:33:50 39° ESE 17:38:07 15° NE
COSMOS 2455 3.1 17:28:58 10° S 17:34:42 49° ESE 17:39:32 15° NE
SJ 16-02 4.3 17:31:34 10° NW 17:34:47 20° W 17:38:00 10° SW
Cosmos 1809 Rocket 4.4 17:28:48 10° N 17:34:53 67° E 17:40:55 10° SSE
CZ-4B DEB 4.2 17:32:00 10° SSE 17:37:32 88° ENE 17:43:04 10° NNW
ATLAS 5 CENTAUR R/B 3.6 17:32:02 10° NW 17:38:05 21° N 17:39:45 17° NE
CZ-4C R/B 3.5 17:32:31 10° NNW 17:39:01 37° NE 17:45:25 14° ESE
Cosmos 44 4.4 17:34:32 10° NW 17:39:02 45° WSW 17:43:15 10° S
SKYMED 2 4.0 17:35:28 11° NNE 17:39:26 40° E 17:43:30 10° SSE
SL-24 R/B - RUBIN 2 4.3 17:36:23 10° NNW 17:40:28 32° NE 17:42:23 22° E
Cosmos 1782 2.8 17:37:20 10° S 17:41:16 60° E 17:45:13 10° NNE
ATLAS CENTAUR R/B 3.2 17:31:24 10° SW 17:42:20 75° NW 17:45:46 18° NE
CORIOLIS 4.5 17:38:47 10° S 17:44:09 71° WSW 17:49:35 10° NNW
Cosmos 1602 3.6 17:40:24 10° N 17:44:16 83° E 17:48:08 10° S
Cosmos 2278 4.4 17:39:39 10° N 17:44:46 32° NE 17:48:32 16° ESE
Cosmos 1500 Rocket 4.3 17:41:03 10° NNW 17:45:25 56° W 17:49:43 10° S
Cosmos 1763 Rocket 4.0 17:41:54 10° SSW 17:46:53 59° WNW 17:51:56 10° NNE
USA 267 4.0 17:42:43 13° NE 17:48:10 43° NNW 17:54:14 10° W
COSMOS 2406 3.2 17:42:37 10° SSW 17:48:23 86° ESE 17:53:56 11° NNE
Cosmos 841 Rocket 3.4 17:46:15 10° S 17:51:21 67° ESE 17:55:39 15° NNE
Landsat 5 3.9 17:52:10 27° NE 17:53:44 39° E 17:57:30 10° SSE
Cosmos 1092 Rocket 4.2 17:47:40 10° N 17:54:03 80° W 18:00:22 10° S
Cosmos 1937 Rocket 3.4 17:49:43 10° NNW 17:55:04 82° ENE 18:00:23 10° SSE
Cosmos 1805 Rocket 3.7 17:52:31 10° NNW 17:56:51 73° W 18:01:09 10° S
Sich 1 3.0 17:55:44 10° N 18:00:02 86° WSW 18:04:20 10° S
Cosmos 1833 Rocket 3.2 17:54:40 10° SW 18:00:12 60° WNW 18:05:48 10° NNE
SJ-11-01 4.3 17:55:37 10° SSE 18:00:16 59° ENE 18:04:57 10° N
ARGOS 3.1 17:55:58 10° SSE 18:01:18 61° ENE 18:06:38 10° N
CZ-2D R/B 3.7 17:57:39 10° S 18:01:27 62° W 18:05:16 10° NNW
PAYLOAD B 4.4 17:56:09 10° S 18:01:45 76° WSW 18:07:23 10° NNW
Lacrosse 5 rocket 3.2 18:00:27 10° NNW 18:02:31 16° NNE 18:02:31 16° NNE
USA 229 DEB 4.1 17:58:29 10° NW 18:05:53 76° WSW 18:13:42 10° SSE
USA 229 4.1 17:58:34 10° NW 18:05:59 76° WSW 18:13:48 10° SSE
Cosmos 2142 Rocket 4.3 18:03:42 10° S 18:09:48 75° E 18:16:01 10° N
Cosmos 372 Rocket 3.9 18:07:14 10° NNW 18:12:29 75° ENE 18:17:43 10° SSE
CZ-4B R/B 3.1 18:07:35 10° SSE 18:13:02 86° WSW 18:18:26 10° NNW
deb Chang Zheng 4 3.5 18:09:40 10° SSE 18:13:58 85° WSW 18:18:19 10° NNW
YAOGAN 3 4.4 18:12:36 10° SSE 18:16:57 85° ENE 18:21:20 10° NNW
USA 234 4.1 18:14:49 10° SSE 18:21:08 50° SW 18:27:27 10° WNW
Feng Yun 1-1 Rocket 4.3 18:15:26 10° SSE 18:21:15 61° ENE 18:27:04 10° N
Cosmos 2279 Rocket 3.9 18:15:22 10° S 18:21:35 86° E 18:27:49 10° N
Cosmos 1500 4.0 18:19:43 10° NNW 18:23:21 49° W 18:26:56 10° S
CZ-2C R/B 2.7 18:18:58 10° N 18:24:11 74° WNW 18:29:19 10° SSW
DMSP B5D2-2 4.3 18:24:39 45° ESE 18:24:39 45° ESE 18:29:24 10° S
Meteor 2-16 Rocket 4.3 18:19:25 10° N 18:25:34 87° E 18:31:42 10° S
GEOS 3 Rocket 3.6 18:26:15 49° E 18:27:15 57° NE 18:32:21 10° NNW
COSMO-SKYMED 1 3.0 18:24:05 15° N 18:27:33 61° WNW 18:31:48 10° SSW
Cosmos 2266 Rocket 4.1 18:21:56 10° N 18:28:07 50° ENE 18:34:19 10° SSE
USA 276 3.7 18:27:28 10° WNW 18:30:18 32° SW 18:30:21 32° SW
Cosmos 1570 Rocket 3.9 18:28:43 10° SSW 18:33:58 84° ESE 18:35:30 47° NNE
NOSS 2-2 (D) 4.4 18:31:17 10° NW 18:36:45 86° SW 18:44:27 10° SSE
ISS -1.8 18:33:41 10° NW 18:35:15 23° NW 18:35:15 23° NW
Cosmos 1818 4.3 18:35:31 10° NNW 18:39:29 37° NNE 18:39:29 37° NNE
Cosmos 2360 Rocket 4.4 18:36:57 10° N 18:37:22 11° N 18:37:22 11° N
Cosmos 1633 Rocket 3.2 18:37:10 10° NNW 18:41:31 69° W 18:45:52 10° S
Okean O Rocket 2.5 18:39:33 10° S 18:43:52 49° W 18:48:12 10° NNW
Meteor 2-15 Rocket 4.3 18:38:29 10° S 18:44:31 63° E 18:44:57 61° ENE
Cosmos 1814 Rocket 4.2 18:39:23 10° SSW 18:44:36 69° WNW 18:46:27 40° N
Cosmos 1655 Rocket 3.9 18:48:05 10° N 18:54:31 83° E 19:00:53 10° S
Cosmos 2322 Rocket 4.0 18:54:26 10° N 18:56:10 19° N 18:56:10 19° N
H-2A R/B 4.4 19:00:45 10° SW 19:04:43 22° W 19:08:39 10° NW
Cosmos 2208 Rocket 4.3 19:00:05 10° SSW 19:05:25 66° WNW 19:05:47 64° NW
Cosmos 1980 Rocket 3.2 19:01:36 10° NW 19:06:56 44° WSW 19:12:13 10° S
SL-16 R/B 3.8 19:10:26 10° NNW 19:12:42 24° NNW 19:12:42 24° NNW
Cosmos 2082 Rocket 3.7 19:12:53 10° WSW 19:17:58 33° NW 19:20:00 26° NNW
COSMOS 2455 4.3 19:15:28 10° WSW 19:20:50 33° NW 19:22:43 27° NNW
CZ-4C R/B 3.2 19:20:44 10° NW 19:28:09 68° WSW 19:30:43 46° S
